This is the latest recevied weather packets stored in our database for station/object KB4RFE. If no packets are shown the sender has not sent any weather packets the latest 10 day(s).
| Time | Temp. | Humidity | Pressure | Rain* | Wind** | Luminosity | Snow |
|---|---|---|---|---|---|---|---|
| 1777556823 | 20.56° C | 93% | 1011.8 hPa | 0 mm | - | 241 W/m² | - |
| 1777556520 | 20.56° C | 93% | 1011.9 hPa | 0 mm | - | 226 W/m² | - |
| 1777556219 | 20.56° C | 93% | 1012 hPa | 0 mm | - | 282 W/m² | - |
| 1777555915 | 20.56° C | 93% | 1012.1 hPa | 0 mm | - | 229 W/m² | - |
| 1777555611 | 20.56° C | 94% | 1012.4 hPa | 0 mm | - | 177 W/m² | - |
| 1777555308 | 20.56° C | 94% | 1012.4 hPa | 0.51 mm | - | 90 W/m² | - |
| 1777555004 | 20.56° C | 94% | 1012.4 hPa | 1.78 mm | - | 62 W/m² | - |
| 1777554702 | 20.56° C | 94% | 1012.4 hPa | 3.05 mm | - | 46 W/m² | - |
| 1777554398 | 20.56° C | 94% | 1012.2 hPa | 2.29 mm | - | 43 W/m² | - |
| 1777554095 | 21.11° C | 94% | 1011.9 hPa | 1.27 mm | - | 75 W/m² | - |
| 1777553792 | 21.11° C | 94% | 1012 hPa | 0.51 mm | - | 151 W/m² | - |
| 1777553488 | 20.56° C | 94% | 1011.6 hPa | 0.51 mm | - | 154 W/m² | - |
| 1777553184 | 21.11° C | 93% | 1011.5 hPa | 0.51 mm | - | 130 W/m² | - |
| 1777552880 | 21.11° C | 92% | 1011.6 hPa | 7.87 mm | - | 98 W/m² | - |
| 1777552575 | 21.11° C | 91% | 1012.1 hPa | 7.87 mm | - | 65 W/m² | - |
| 1777552272 | 21.11° C | 90% | 1012 hPa | 0.51 mm | - | 37 W/m² | - |
| 1777551969 | 21.11° C | 89% | 1011.5 hPa | 0.51 mm | - | 47 W/m² | - |
| 1777551666 | 21.11° C | 88% | 1011.8 hPa | 0.51 mm | - | 34 W/m² | - |
| 1777551364 | 21.11° C | 88% | 1011.6 hPa | 0.51 mm | - | 29 W/m² | - |
| 1777551060 | 21.67° C | 88% | 1011.5 hPa | 0.51 mm | - | 13 W/m² | - |
| 1777550756 | 21.67° C | 89% | 1011.3 hPa | 0 mm | - | 19 W/m² | - |
| 1777550453 | 21.67° C | 90% | 1010.7 hPa | 0 mm | - | 18 W/m² | - |
| 1777550149 | 21.67° C | 90% | 1010.4 hPa | 0 mm | - | 13 W/m² | - |
| 1777549846 | 21.67° C | 90% | 1010.5 hPa | 0 mm | - | 7 W/m² | - |
| 1777549542 | 21.67° C | 90% | 1010.5 hPa | 0 mm | - | 10 W/m² | - |
* Rain latest hour (hover to see other rain measurements)
** Current wind speed in m/s (hover to see current wind gust speed)